Flag for Iceland Weather past 2 weeks in Reykjavik, Iceland

Now
52 °F

Light rain. Mostly cloudy.


Feels Like: 50 °F
Forecast: N/A
Wind: 6 mph from South

Location: Reykjavik Airport

Current Time: Jul 2, 2015 at 9:42:17 PM

Latest Report: Jul 2, 2015 at 9:00 PM


Visibility: N/A

Pressure: 29.95 "Hg

Humidity: 82%

Dew point: 46 °F

Location of ReykjavikLocation

Historic Weather in Reykjavik — Graph

°F

Reykjavik temperature yesterday

Maximum temperature yesterday: 59 °F (at 1:00 AM)
Minimum temperature yesterday: 52 °F (at 9:00 PM)
Average temperature yesterday: 55 °F

Past Weeks' High & Low Weather Summary

 TemperatureHumidityPressure
High64 °F (Jun 26, 5:00 PM)93% (Jun 17, 8:00 PM)30.21 "Hg (Jun 17, 8:00 PM)
Low43 °F (Jun 18, 10:00 PM)30% (Jun 26, 5:00 PM)29.56 "Hg (Jun 17, 8:00 PM)
Average51 °F72%29.88 "Hg
* Reported Jun 17 8:00 PM — Jul 2 8:00 PM, Reykjavik, Weather by CustomWeather, © 2015

Note: Actual official high and low records may vary slightly from our data, if they occured in-between our weather recording intervals... More about our weather records

Advertising

Reykjavik weather history for previous 24 hours

 ConditionsComfort  
Time TempWeatherWind HumidityBarometerVisibility
8:00 PM
Thu, Jul 2
52 °FLight rain. More clouds than sun.6 mph82%29.95 "HgN/A
7:00 PM54 °FLight rain. More clouds than sun.2 mph77%29.95 "HgN/A
6:00 PM54 °FLight rain. More clouds than sun.8 mph77%29.92 "HgN/A
5:00 PM55 °FPartly sunny.9 mph67%29.92 "HgN/A
4:00 PM55 °FPartly sunny.8 mph67%29.89 "HgN/A
3:00 PM57 °FPartly sunny.7 mph63%29.89 "HgN/A
2:00 PM57 °FScattered clouds.7 mph63%29.89 "HgN/A
1:00 PM57 °FScattered clouds.9 mph63%29.89 "HgN/A
12:00 PM57 °FPartly sunny.9 mph59%29.86 "HgN/A
11:00 AM55 °FPartly sunny.9 mph67%29.89 "HgN/A
10:00 AM55 °FPartly sunny.6 mph67%29.86 "HgN/A
9:00 AM55 °FBroken clouds.3 mph67%29.86 "HgN/A
8:00 AM54 °FScattered clouds.No wind67%29.86 "HgN/A
7:00 AM52 °FPartly sunny.No wind77%29.89 "HgN/A
6:00 AM50 °FPartly sunny.No wind76%29.89 "HgN/A
5:00 AM50 °FPartly sunny.No wind76%29.86 "HgN/A
4:00 AM50 °FPartly sunny.No wind82%29.86 "HgN/A
3:00 AM52 °FPartly cloudy.6 mph77%29.89 "HgN/A
2:00 AM52 °FPartly cloudy.5 mph72%29.89 "HgN/A
1:00 AM52 °FPartly cloudy.7 mph72%29.89 "HgN/A
12:00 AM52 °FPassing clouds.9 mph77%29.86 "HgN/A
11:00 PM
Wed, Jul 1
52 °FPartly sunny.8 mph77%29.86 "HgN/A
10:00 PM52 °FPartly sunny.8 mph77%29.83 "HgN/A
9:00 PM52 °FMostly cloudy.8 mph82%29.83 "HgN/A
Weather by CustomWeather, © 2015

See weather overviewHow to use our weather pages